Date String (YYYY-MM-DD hh:mm:ss) UTC,Instrument flags,absolute air pressure of the measurement (hPa),sample flow rate (lpm),inlet stack bypass flow (lpm),air temperature of the measurement (°C),ambient temperature measured by the external sensor (°C),aerosol sample conditioner tube jacket temperature (°C),OPC LED temperature (°C),internal box temperature (°C),relative humidity of the measurement (%),span deviation,mass concentration of particles derived from Lorenz-Mie calculation of OPC scattering (μg/m³),mass concentration of particles derived from Lorenz-Mie calculation of OPC scattering (μg/m³),mass concentration of particles derived from Lorenz-Mie calculation of OPC scattering (μg/m³)
DateTimeUTC,F1_M11,P_M11,Q1_M11,Q2_M11,T1_M11,T2_M11,T3_M11,T4_M11,T5_M11,U1_M11,ZSPAN_M11,X2_M11,X0_M11,X1_M11
2023-07-11 16:00:00,SystemResetWarning,0831.5,4.99,000.00,028.8,026.7,000.0,037.2,030.4,30.7,0000.0,0006.21,0021.34,0004.84
2023-07-11 16:01:00,SystemResetWarning,0831.5,5.00,000.00,028.8,027.0,000.0,037.3,030.5,29.3,0000.0,0006.21,0020.48,0004.86
2023-07-11 16:02:00,SystemResetWarning,0831.5,5.00,000.00,028.9,027.3,000.0,037.3,030.5,29.9,0000.0,0006.24,0019.88,0004.87
2023-07-11 16:03:00,SystemResetWarning,0831.5,5.00,000.00,028.9,027.5,000.0,037.3,030.6,29.4,0000.0,0006.25,0020.72,0004.86
2023-07-11 16:04:00,SystemResetWarning,0831.5,5.00,000.00,028.9,026.9,000.0,037.2,030.6,27.0,0000.0,0006.28,0021.25,0004.85
2023-07-11 16:05:00,SystemResetWarning,0831.5,5.01,000.00,028.9,025.4,000.0,037.1,030.3,25.8,0000.0,0006.23,0020.85,0004.84
2023-07-11 16:06:00,SystemResetWarning,0831.5,5.01,000.00,028.8,025.0,000.0,037.0,030.2,29.7,0000.0,0006.24,0019.92,0004.82
2023-07-11 16:07:00,SystemResetWarning,0831.6,5.01,000.00,028.8,025.3,000.0,037.1,030.1,29.4,0000.0,0006.27,0020.02,0004.81
2023-07-11 16:08:00,SystemResetWarning,0831.5,5.00,000.00,028.7,025.7,000.0,037.1,030.1,30.9,0000.0,0006.20,0020.15,0004.79
2023-07-11 16:09:00,SystemResetWarning,0831.4,4.99,000.00,028.7,026.1,000.0,037.1,030.2,28.3,0000.0,0006.15,0019.76,0004.79
2023-07-11 16:10:00,SystemResetWarning,0831.5,5.00,000.00,028.7,026.5,000.0,037.2,030.3,26.6,0000.0,0006.05,0018.65,0004.76
2023-07-11 16:11:00,SystemResetWarning,0831.6,5.00,000.00,028.8,026.9,000.0,037.2,030.4,26.1,0000.0,0005.98,0017.94,0004.73
2023-07-11 16:12:00,SystemResetWarning,0831.6,5.01,000.00,028.8,027.2,000.0,037.2,030.5,25.8,0000.0,0005.95,0017.55,0004.69
2023-07-11 16:13:00,SystemResetWarning,0831.6,5.00,000.00,028.8,027.4,000.0,037.2,030.6,26.2,0000.0,0005.91,0018.25,0004.67
2023-07-11 16:14:00,SystemResetWarning,0831.6,4.99,000.00,028.9,027.0,000.0,037.2,030.5,23.0,0000.0,0005.83,0017.31,0004.65
2023-07-11 16:15:00,SystemResetWarning,0831.5,5.00,000.00,028.8,025.5,000.0,037.1,030.3,18.7,0000.0,0005.74,0015.22,0004.66
2023-07-11 16:16:00,SystemResetWarning,0831.5,5.00,000.00,028.7,025.0,000.0,037.0,030.1,14.6,0000.0,0005.74,0015.84,0004.67
2023-07-11 16:17:00,SystemResetWarning,0831.4,5.02,000.00,028.7,025.3,000.0,037.0,030.0,14.5,0000.0,0005.72,0016.06,0004.64
2023-07-11 16:18:00,SystemResetWarning,0831.4,5.00,000.00,028.7,025.7,000.0,037.0,030.1,14.6,0000.0,0005.69,0015.45,0004.62
2023-07-11 16:19:00,SystemResetWarning,0831.4,5.00,000.00,028.7,026.1,000.0,037.1,030.2,13.9,0000.0,0005.69,0015.30,0004.59
2023-07-11 16:20:00,SystemResetWarning,0831.4,5.01,000.00,028.7,026.5,000.0,037.1,030.3,14.2,0000.0,0005.69,0014.92,0004.57
2023-07-11 16:21:00,SystemResetWarning,0831.3,5.00,000.00,028.7,026.8,000.0,037.1,030.3,14.6,0000.0,0005.67,0015.46,0004.52
2023-07-11 16:22:00,SystemResetWarning,0831.4,5.00,000.00,028.7,027.1,000.0,037.1,030.4,13.8,0000.0,0005.57,0015.58,0004.44
2023-07-11 16:23:00,SystemResetWarning,0831.4,5.00,000.00,028.8,027.3,000.0,037.2,030.5,13.5,0000.0,0005.44,0015.62,0004.36
2023-07-11 16:24:00,SystemResetWarning,0831.4,4.99,000.00,028.8,026.3,000.0,037.1,030.4,13.7,0000.0,0005.35,0014.96,0004.26
2023-07-11 16:25:00,SystemResetWarning,0831.4,5.01,000.00,028.7,025.0,000.0,037.0,030.1,14.0,0000.0,0005.28,0014.89,0004.17
2023-07-11 16:26:00,SystemResetWarning,0831.3,5.01,000.00,028.7,025.1,000.0,036.9,030.0,13.9,0000.0,0005.18,0014.93,0004.06
2023-07-11 16:27:00,SystemResetWarning,0831.3,4.99,000.00,028.6,025.5,000.0,037.0,030.0,14.2,0000.0,0005.08,0014.22,0003.95
2023-07-11 16:28:00,SystemResetWarning,0831.3,4.99,000.00,028.6,025.9,000.0,037.0,030.0,14.4,0000.0,0004.97,0013.09,0003.85
2023-07-11 16:29:00,SystemResetWarning,0831.3,5.01,000.00,028.6,026.3,000.0,037.0,030.1,14.0,0000.0,0004.81,0012.67,0003.75
2023-07-11 16:30:00,SystemResetWarning,0831.4,5.00,000.00,028.6,026.7,000.0,037.0,030.2,13.6,0000.0,0004.70,0012.06,0003.67
2023-07-11 16:31:00,SystemResetWarning,0831.5,4.98,000.00,028.7,027.0,000.0,037.1,030.3,14.3,0000.0,0004.61,0012.06,0003.59
2023-07-11 16:32:00,SystemResetWarning,0831.5,5.01,000.00,028.7,027.3,000.0,037.1,030.4,15.1,0000.0,0004.50,0011.66,0003.52
2023-07-11 16:33:00,SystemResetWarning,0831.5,5.01,000.00,028.8,027.1,000.0,037.1,030.4,14.2,0000.0,0004.43,0011.54,0003.49
2023-07-11 16:34:00,SystemResetWarning,0831.5,4.99,000.00,028.7,025.6,000.0,036.9,030.2,14.5,0000.0,0004.48,0011.34,0003.48
2023-07-11 16:35:00,SystemResetWarning,0831.4,5.01,000.00,028.7,024.9,000.0,036.9,030.1,14.6,0000.0,0004.51,0012.33,0003.47
2023-07-11 16:36:00,SystemResetWarning,0831.4,5.01,000.00,028.6,025.3,000.0,036.9,030.0,15.1,0000.0,0004.50,0012.90,0003.47
2023-07-11 16:37:00,SystemResetWarning,0831.5,5.00,000.00,028.6,025.6,000.0,036.9,030.0,14.8,0000.0,0004.52,0013.65,0003.48
2023-07-11 16:38:00,SystemResetWarning,0831.5,5.00,000.00,028.6,026.0,000.0,037.0,030.1,14.5,0000.0,0004.53,0013.33,0003.49
2023-07-11 16:39:00,SystemResetWarning,0831.5,5.00,000.00,028.6,026.4,000.0,037.0,030.2,14.4,0000.0,0004.50,0013.56,0003.50
2023-07-11 16:40:00,SystemResetWarning,0831.4,5.00,000.00,028.6,026.8,000.0,037.0,030.2,14.7,0000.0,0004.49,0013.87,0003.51
2023-07-11 16:41:00,SystemResetWarning,0831.5,4.99,000.00,028.7,027.1,000.0,037.0,030.3,15.5,0000.0,0004.51,0013.89,0003.51
2023-07-11 16:42:00,SystemResetWarning,0831.5,5.00,000.00,028.7,027.4,000.0,037.1,030.4,16.3,0000.0,0004.51,0014.45,0003.52
2023-07-11 16:43:00,SystemResetWarning,0831.5,5.00,000.00,028.8,027.3,000.0,037.0,030.5,15.4,0000.0,0004.53,0014.41,0003.52
2023-07-11 16:44:00,SystemResetWarning,0831.4,4.99,000.00,028.8,026.0,000.0,037.0,030.2,13.9,0000.0,0004.56,0014.66,0003.53
2023-07-11 16:45:00,SystemResetWarning,0831.3,5.01,000.00,028.7,025.1,000.0,036.9,030.0,13.8,0000.0,0004.55,0014.95,0003.54
2023-07-11 16:46:00,SystemResetWarning,0831.4,5.01,000.00,028.6,025.4,000.0,036.8,030.0,13.2,0000.0,0004.56,0014.31,0003.55
2023-07-11 16:47:00,SystemResetWarning,0831.4,4.99,000.00,028.6,025.8,000.0,036.9,030.0,13.3,0000.0,0004.54,0013.28,0003.55
2023-07-11 16:48:00,SystemResetWarning,0831.4,5.00,000.00,028.6,026.2,000.0,036.9,030.1,12.7,0000.0,0004.52,0013.51,0003.55
2023-07-11 16:49:00,SystemResetWarning,0831.4,5.00,000.00,028.6,026.5,000.0,037.0,030.2,12.4,0000.0,0004.49,0013.38,0003.55
2023-07-11 16:50:00,SystemResetWarning,0831.4,5.00,000.00,028.6,026.9,000.0,037.0,030.3,12.2,0000.0,0004.50,0014.34,0003.54
2023-07-11 16:51:00,SystemResetWarning,0831.4,4.99,000.00,028.7,027.2,000.0,037.0,030.4,12.4,0000.0,0004.56,0014.14,0003.53
2023-07-11 16:52:00,SystemResetWarning,0831.4,4.98,000.00,028.7,027.2,000.0,037.0,030.4,12.7,0000.0,0004.56,0014.11,0003.51
2023-07-11 16:53:00,SystemResetWarning,0831.3,5.00,000.00,028.7,026.0,000.0,036.9,030.2,12.4,0000.0,0004.54,0013.69,0003.51
2023-07-11 16:54:00,SystemResetWarning,0831.3,5.00,000.00,028.6,025.0,000.0,036.8,030.0,12.2,0000.0,0004.49,0012.83,0003.49
2023-07-11 16:55:00,SystemResetWarning,0831.3,5.01,000.00,028.6,025.3,000.0,036.8,030.0,12.5,0000.0,0004.42,0013.06,0003.47
2023-07-11 16:56:00,SystemResetWarning,0831.3,5.00,000.00,028.5,025.7,000.0,036.9,029.9,12.7,0000.0,0004.37,0012.66,0003.44
2023-07-11 16:57:00,SystemResetWarning,0831.3,5.00,000.00,028.5,026.1,000.0,036.9,030.0,12.0,0000.0,0004.35,0012.33,0003.43
2023-07-11 16:58:00,SystemResetWarning,0831.4,5.00,000.00,028.6,026.5,000.0,036.9,030.1,12.0,0000.0,0004.33,0012.40,0003.42
2023-07-11 16:59:00,SystemResetWarning,0831.3,5.01,000.00,028.6,026.8,000.0,036.9,030.2,12.2,0000.0,0004.37,0012.17,0003.41
